Orbital Elements at Epoch 2459200.5 (2020-Dec-17.0) TDB
Reference: JPL 34 (heliocentric ecliptic J2000)
Element | Value | Uncertainty (1-sigma) | Units |
e | .05734180592590069 | 2.8703e-08 | |
a | 2.251696010898153 | 6.3933e-09 | au |
q | 2.122579695237107 | 6.409e-08 | au |
i | 2.068276803374233 | 3.905e-06 | deg |
node | 355.7420349346962 | 7.6347e-05 | deg |
peri | 311.3123327308634 | 8.3701e-05 | deg |
M | 80.42783768208369 | 3.4624e-05 | deg |
tp | 2458924.780833779572 (2020-Mar-16.28083378) | 0.00011871 | TDB |
period | 1234.136123759861 3.38 | 5.2562e-06 1.439e-08 | d yr |
n | .2917020197927931 | 1.2424e-09 | deg/d |
Q | 2.3808123265592 | 6.7599e-09 | au |
|
| | Orbit Determination Parameters
Additional Information
|